Theta_e
321 321 319 319 321 322 321 320 321 322 323 323 323 322 320 319 318 317 318 317 317 318 318 317 317 317 317 316 315 314 314 313 312 312 311 311 310 310 309 308 308 308 307 307 307 306 306 306 307 307 307 307 307 307 308 308 308 308 309 309 309 310 310 311 312 312 312 312 313 313 312 313 312 312 313 313 315 316 317 317 318 318 317 317 319
322 321 320 320 321 321 320 320 321 322 322 323 323 322 321 320 319 318 318 317 317 317 317 317 317 317 317 316 315 315 314 313 312 311 311 311 310 309 308 308 308 307 307 307 306 306 306 306 306 306 306 306 307 307 307 307 307 307 308 308 308 308 309 309 310 311 311 311 311 312 311 311 311 311 312 313 314 314 314 315 315 315 316 317 319
322 322 322 322 322 321 321 320 321 322 323 322 323 322 321 321 320 319 319 318 317 317 317 317 318 317 317 317 315 315 314 313 312 311 311 310 310 309 308 308 308 307 307 306 305 306 306 306 306 306 306 306 306 307 307 307 307 307 307 307 308 308 308 308 308 309 309 310 310 310 310 310 310 311 311 311 312 312 312 313 313 314 315 316 317
322 322 322 322 322 322 322 321 321 321 323 323 322 322 321 321 320 320 319 318 318 317 317 317 317 317 317 316 316 315 314 313 312 311 311 310 309 309 308 308 307 307 306 305 305 305 305 305 305 305 305 305 305 305 305 306 306 306 306 307 307 307 308 308 308 307 308 308 309 309 309 309 309 309 309 309 310 310 311 312 313 314 315 315 316
318 321 323 323 322 322 322 322 322 322 323 323 323 322 322 321 320 320 319 318 319 318 317 318 317 317 317 317 316 315 313 312 312 311 310 309 309 308 307 307 307 306 306 305 304 304 304 304 304 304 304 305 305 305 305 305 305 304 304 305 305 306 306 307 307 307 307 308 308 308 308 308 308 308 308 308 309 309 310 311 312 313 313 314 315
312 316 319 322 323 322 322 322 322 322 323 323 323 322 322 321 321 320 319 319 319 319 318 318 318 317 317 317 316 315 313 312 311 310 310 309 308 307 307 307 306 305 305 304 303 303 303 303 303 303 303 304 304 304 304 304 304 304 304 304 304 304 305 306 306 307 307 307 307 307 307 308 308 308 308 308 308 309 309 309 310 311 312 313 314
309 310 313 316 319 321 322 322 323 323 323 323 323 323 322 321 321 320 319 319 319 319 319 318 317 317 317 317 315 314 313 312 311 310 309 308 308 307 307 306 305 304 303 302 302 302 301 302 302 302 302 303 303 304 304 304 304 304 305 305 305 305 305 305 305 306 306 306 307 307 307 307 307 308 308 307 308 308 308 309 311 312 313 314 315
309 309 310 311 313 315 317 319 321 322 322 323 323 323 322 322 321 320 319 319 319 319 318 317 316 316 316 316 315 314 313 312 311 310 309 308 307 307 306 305 303 303 302 301 301 300 300 300 300 300 301 301 300 300 301 301 302 303 303 304 304 304 304 304 304 305 305 305 306 306 307 307 307 307 308 307 308 309 309 309 310 311 311 312 313
308 308 309 310 310 311 312 314 317 319 321 321 322 322 322 322 321 320 319 319 319 319 317 316 317 317 316 316 314 313 312 311 310 309 308 307 307 305 304 302 301 301 300 300 300 300 299 299 300 299 297 295 294 295 295 295 296 298 300 301 302 303 303 304 304 304 304 305 305 306 306 306 306 307 307 308 309 309 309 309 309 308 308 309 310
308 307 308 308 309 310 311 313 315 317 319 320 320 321 322 321 321 320 320 319 319 318 317 317 317 316 316 315 313 312 311 310 308 307 307 306 305 303 302 301 300 300 300 300 300 300 299 299 299 298 295 294 295 295 294 294 294 294 296 297 299 301 302 303 303 303 304 304 304 305 305 306 306 306 307 307 307 308 308 308 308 308 308 309 310
307 307 307 307 307 308 310 312 314 315 317 318 319 320 321 321 320 320 320 319 318 316 317 317 316 315 315 313 312 311 310 308 307 305 304 303 303 302 301 300 299 299 299 299 299 299 299 298 298 298 297 298 298 297 296 295 295 294 294 294 295 296 298 300 301 302 303 303 303 304 305 305 305 305 305 306 306 306 307 307 308 307 307 308 309
306 306 306 306 306 306 307 309 311 313 316 317 318 319 320 319 319 319 319 319 317 316 316 316 315 315 314 313 312 310 308 306 305 303 302 301 300 300 300 299 299 299 299 299 299 298 298 298 298 298 298 298 297 297 297 297 297 296 295 295 294 294 294 295 297 299 301 302 303 303 304 304 304 304 305 305 305 305 305 305 306 306 307 308 308
306 306 306 305 305 306 306 307 309 311 314 316 317 318 318 318 318 318 319 318 317 317 316 315 314 313 313 312 310 308 306 305 304 302 301 298 296 297 299 299 298 298 299 298 298 298 298 297 297 297 298 297 297 297 298 298 298 297 297 296 296 295 295 295 295 296 297 298 300 301 302 303 303 303 303 304 303 303 303 304 304 305 306 307 307
306 306 306 305 305 306 306 307 308 310 312 315 316 317 317 317 317 317 317 317 317 317 316 315 314 313 312 311 308 306 304 303 302 301 299 296 294 295 298 298 297 298 298 298 298 298 297 297 297 297 297 297 297 298 298 297 297 297 297 297 297 297 297 297 296 296 295 296 297 298 299 300 301 302 302 302 302 302 302 302 302 303 304 305 305
306 306 306 306 306 307 307 307 308 309 310 313 315 316 316 317 316 316 316 316 316 316 315 314 313 311 310 309 307 304 303 302 301 299 296 295 294 295 297 298 298 298 298 298 298 297 297 297 297 297 297 297 297 296 296 295 296 296 296 297 297 297 297 297 297 297 297 297 297 298 299 299 299 300 300 301 301 301 301 301 301 301 301 302 302
305 306 306 307 307 307 308 307 308 309 309 311 313 315 315 316 315 315 315 315 314 314 314 312 312 310 309 307 305 303 302 301 299 296 295 295 295 295 298 299 298 298 298 298 297 297 297 297 297 296 296 296 296 295 294 294 294 295 295 296 296 297 297 297 296 296 296 296 297 297 298 298 298 298 298 298 298 298 299 300 300 300 300 301 301
305 305 306 307 308 308 308 308 308 309 310 310 312 314 315 315 314 314 314 314 313 312 312 311 310 309 307 305 303 302 300 298 296 295 295 295 295 296 298 298 298 298 298 298 298 297 297 297 296 296 296 296 295 294 293 293 293 294 295 295 296 296 296 296 296 295 295 294 294 294 295 295 296 296 296 297 296 296 296 298 299 299 300 300 301
305 305 306 307 307 307 307 307 308 309 310 310 311 313 314 314 314 313 313 313 312 311 310 309 307 307 305 304 302 301 299 296 294 295 295 295 295 296 298 298 297 298 297 297 298 298 297 297 295 295 295 295 295 293 292 292 292 294 294 294 295 295 295 296 296 295 295 294 294 294 293 293 294 294 294 295 295 294 295 296 297 298 298 299 300
305 305 306 307 307 307 307 307 308 308 309 310 312 313 314 313 313 313 313 312 310 309 308 307 305 304 303 302 301 299 297 294 294 295 295 294 294 296 297 297 297 297 297 297 297 297 297 297 296 295 295 294 293 292 292 291 292 293 293 293 294 294 294 295 295 295 295 294 294 294 294 294 294 294 294 294 294 294 294 295 296 296 297 298 299
305 306 306 307 307 307 307 308 308 309 310 311 312 313 313 312 312 312 311 309 308 307 306 305 303 303 302 301 299 297 296 295 295 295 295 294 294 294 295 296 296 297 297 297 297 296 296 296 296 296 295 294 293 292 291 291 291 291 291 292 292 293 293 293 293 293 293 293 293 293 293 293 293 293 294 294 294 294 294 294 295 295 296 297 298
305 305 306 306 307 307 307 307 308 309 310 311 312 312 312 311 312 311 308 307 306 305 304 303 303 302 301 299 297 296 296 295 295 295 294 293 293 293 294 296 296 296 296 296 295 295 295 295 296 295 295 294 293 292 292 291 290 290 290 290 291 291 291 291 291 291 291 291 291 292 292 292 292 292 293 293 294 294 295 295 295 295 295 296 297
305 305 306 306 306 307 307 307 308 308 309 310 311 311 311 311 310 309 307 305 304 303 303 303 303 301 300 298 296 296 296 296 295 294 293 293 292 292 293 294 294 294 294 294 294 294 295 295 295 295 294 293 292 292 291 290 289 289 289 289 289 289 289 289 289 289 290 290 290 291 292 292 292 292 293 293 293 294 294 295 295 296 296 296 296
305 306 306 306 306 306 306 306 307 308 309 309 310 311 311 310 308 307 306 305 304 303 302 302 301 299 298 297 297 296 296 296 296 295 294 293 293 292 292 292 291 291 293 294 294 294 295 295 295 295 293 292 291 290 289 288 288 288 289 288 288 288 288 288 289 289 289 290 290 291 291 292 292 292 293 293 293 294 294 295 295 295 296 296 296
306 306 306 306 306 306 306 306 307 307 308 309 310 310 309 307 306 305 305 303 302 301 301 301 299 298 298 298 298 298 298 298 296 295 293 293 292 291 291 290 290 291 292 293 294 294 295 294 293 292 291 289 289 288 288 288 289 289 289 289 289 289 289 289 289 289 290 290 290 291 291 292 292 293 293 293 293 294 294 294 294 295 295 295 295
306 306 306 306 306 305 305 306 306 307 308 309 309 308 306 305 304 303 302 302 301 301 300 299 299 299 299 299 299 298 298 297 297 295 294 292 291 291 291 291 291 291 292 292 293 293 292 291 290 289 289 289 289 289 289 290 290 289 289 289 289 289 289 289 290 290 290 291 291 291 292 292 292 292 293 293 293 293 294 293 294 294 294 295 295
305 305 306 305 306 306 306 306 307 308 308 308 307 306 304 303 302 302 302 301 300 299 299 299 299 299 299 297 297 297 297 296 296 296 295 294 293 293 293 293 293 292 292 292 292 292 291 291 290 289 289 289 289 290 290 290 290 290 290 290 290 290 290 291 291 291 291 291 292 292 292 292 292 293 293 293 293 293 293 293 293 293 294 294 294
305 305 305 306 306 306 306 306 307 307 306 306 305 304 303 303 302 302 301 300 299 299 299 299 299 298 297 296 296 296 296 296 296 296 295 295 295 295 295 294 294 293 293 293 293 292 291 290 290 290 290 290 290 290 290 290 290 290 291 291 291 291 291 291 291 291 292 292 292 292 292 292 292 292 293 293 293 293 293 293 293 293 293 293 294
305 305 306 306 306 306 306 306 306 305 305 304 304 303 302 301 301 300 299 299 299 299 299 297 297 296 296 296 296 295 296 296 296 294 293 293 294 294 294 294 293 293 293 292 291 290 290 290 290 290 291 291 291 291 291 291 291 291 291 291 291 291 291 291 291 291 291 292 292 292 292 292 292 292 292 293 293 293 293 292 292 292 293 293 293
305 305 306 306 306 306 305 305 305 304 303 303 302 301 301 300 299 298 298 298 297 296 295 295 295 296 296 296 296 296 296 295 294 292 291 292 291 291 291 291 291 291 290 289 288 289 290 291 291 291 291 291 291 291 291 291 291 291 291 291 291 291 291 291 291 291 291 291 292 292 292 292 292 292 292 292 292 292 292 292 292 292 292 292 293
305 306 306 306 307 306 305 304 304 303 302 300 299 299 299 299 299 298 297 296 295 295 295 295 296 296 296 295 295 294 294 293 292 291 291 291 290 290 290 289 288 288 288 287 288 289 290 291 291 291 291 290 290 290 291 291 290 290 290 290 290 290 290 290 290 290 290 291 291 291 291 291 291 292 292 292 292 292 292 292 292 292 292 292 293
306 306 306 306 306 305 304 303 302 301 300 298 298 298 297 297 297 297 296 295 294 295 295 295 295 295 294 293 292 291 291 291 291 291 291 290 290 290 289 289 288 287 287 287 289 290 291 291 291 290 290 290 290 290 290 290 290 290 290 290 290 290 290 290 290 290 290 290 290 290 290 291 291 291 291 291 291 292 292 292 292 292 292 292 293
306 306 306 306 305 304 303 302 301 300 299 298 298 298 297 296 295 294 294 294 294 294 294 294 294 293 292 292 292 291 291 291 291 291 290 290 290 289 289 288 288 288 288 288 289 290 291 291 290 290 290 290 290 290 290 290 290 290 290 290 290 290 290 290 290 290 289 289 289 290 290 290 290 291 291 291 291 292 292 292 292 292 292 293 292
305 305 305 304 304 302 301 300 299 299 298 298 297 297 296 296 294 293 293 293 293 293 293 293 293 292 291 291 291 292 291 291 291 290 290 290 289 289 289 289 289 289 289 289 290 290 290 290 290 290 290 290 290 290 290 290 290 290 290 289 289 289 289 289 289 289 289 289 289 289 289 290 290 290 291 291 291 292 292 292 292 292 292 293 293
305 304 304 302 301 300 299 299 299 299 298 297 296 296 295 295 295 294 293 292 292 292 291 291 291 291 290 290 291 291 291 290 290 290 289 289 289 289 290 290 290 290 290 290 290 290 290 290 290 290 290 290 289 289 289 289 289 289 289 289 289 289 289 289 289 289 289 289 289 289 290 290 290 290 291 291 291 292 292 292 292 292 292 293 293
303 302 301 300 299 298 298 299 299 298 296 296 296 295 295 295 294 294 294 293 293 292 292 291 290 290 290 290 290 290 290 290 290 289 289 289 289 290 291 291 291 291 291 290 290 290 290 290 290 290 290 289 289 289 289 289 289 289 289 288 288 288 288 289 289 289 289 289 289 289 290 290 290 290 291 291 291 292 292 292 292 292 292 293 293
300 299 299 298 298 297 298 298 297 296 295 295 295 295 295 294 295 295 295 295 294 294 293 292 291 290 290 290 290 290 290 290 290 290 290 290 290 290 291 291 291 291 291 290 290 290 290 290 290 289 289 289 289 289 289 289 289 288 288 288 288 288 288 288 288 288 288 289 289 289 289 289 290 290 290 291 291 291 292 292 292 292 292 293 293
298 298 297 297 297 297 297 297 297 296 295 295 295 296 296 295 296 296 296 296 296 295 295 294 292 291 291 291 290 290 291 291 291 291 291 291 290 291 291 291 291 291 291 290 290 290 290 289 289 289 289 289 289 289 289 289 288 288 288 288 288 288 288 288 288 288 288 288 288 289 289 289 289 290 290 290 291 291 292 292 292 292 292 293 293
298 298 297 297 297 297 297 297 297 297 296 296 296 297 296 296 296 296 296 296 296 296 295 295 293 293 293 292 291 290 291 291 292 292 292 292 292 292 291 291 291 291 290 290 290 290 289 289 289 289 289 289 289 289 288 288 288 288 288 287 288 288 288 288 288 288 288 288 288 289 289 289 290 290 290 291 291 291 292 292 292 292 292 292 293
297 297 297 297 297 297 297 297 297 297 296 297 297 296 296 296 296 296 296 296 296 296 296 295 295 295 295 294 293 293 293 293 293 293 293 293 293 292 291 291 291 291 290 290 290 289 289 289 289 288 288 288 288 288 288 288 287 287 287 287 287 288 288 288 288 288 288 288 288 289 289 289 290 290 291 291 291 291 292 292 292 292 292 293 293
297 296 297 297 297 297 297 296 296 296 296 296 296 295 295 296 296 296 296 296 296 296 296 296 296 295 294 293 292 293 294 294 294 294 294 293 293 292 292 291 291 291 290 290 290 289 289 288 288 288 288 288 288 287 287 287 287 287 287 287 287 287 287 288 288 288 288 288 288 289 289 289 290 290 291 291 291 291 292 292 292 292 293 293 294
297 296 296 296 296 296 297 296 296 296 296 296 296 296 296 296 296 297 296 296 296 296 296 296 296 294 292 291 290 291 293 295 294 294 294 293 292 292 292 291 291 290 290 290 289 289 288 288 288 287 288 287 287 287 287 287 287 287 287 287 287 287 287 287 288 288 288 288 288 288 289 289 290 290 291 292 292 292 292 293 293 293 293 294 294
297 297 296 296 296 297 297 296 296 296 296 296 296 296 296 297 297 297 296 296 296 296 296 296 295 293 291 290 290 290 292 294 293 293 293 293 292 292 292 291 291 290 290 290 289 289 288 288 287 287 287 287 287 287 286 286 286 286 286 286 286 286 287 287 287 287 288 288 288 288 288 289 290 291 292 292 292 293 293 294 294 294 294 294 293
297 297 296 296 296 296 296 296 296 296 296 296 295 296 296 296 296 296 296 295 295 295 295 295 294 293 291 290 290 290 292 293 292 292 292 292 292 291 291 291 291 290 289 289 289 288 288 288 287 287 287 287 287 286 286 286 286 286 286 286 286 286 287 287 287 287 287 288 288 288 289 289 290 292 293 293 293 293 294 294 294 294 294 293 292
296 296 296 296 296 295 295 294 294 294 294 294 294 295 296 296 296 295 295 294 294 294 294 293 293 292 292 291 291 291 292 292 291 291 291 290 290 290 290 290 290 289 289 289 289 288 288 288 287 287 287 287 286 286 286 286 286 286 286 286 286 286 286 286 287 287 287 287 288 288 289 290 291 292 293 293 293 293 294 294 293 293 293 292 292
296 296 296 296 295 295 294 294 294 294 294 294 294 294 295 295 295 294 294 293 293 293 293 292 292 292 292 292 291 291 291 290 290 290 290 289 289 289 289 289 289 288 289 289 289 288 288 288 287 287 287 286 286 286 286 286 286 286 286 286 286 286 286 286 287 288 288 288 288 289 289 290 291 292 293 293 293 293 293 293 292 292 292 292 292
295 296 295 295 295 295 294 294 294 294 294 294 294 294 294 294 293 292 291 291 291 291 292 291 291 291 291 291 290 290 289 289 290 289 289 288 288 288 287 287 287 288 288 288 288 288 288 288 287 287 287 286 286 286 286 286 286 286 286 286 286 286 287 287 288 289 288 288 289 289 289 290 291 292 292 292 292 292 292 292 292 292 292 292 292
294 294 294 294 294 293 293 292 292 292 292 292 292 292 292 292 291 290 290 289 289 290 290 290 290 290 289 289 289 289 288 289 289 288 288 287 287 287 287 286 286 287 288 288 288 288 288 288 287 287 287 286 286 286 286 286 286 285 286 286 286 287 288 288 289 289 289 289 289 289 289 290 291 291 291 292 292 292 292 292 292 291 291 292 292
293 293 293 293 293 293 292 292 291 291 291 290 289 290 290 289 289 289 289 289 289 289 289 289 289 288 288 288 288 287 287 288 288 288 287 287 287 286 286 286 286 286 287 288 288 288 288 288 287 287 287 286 286 286 286 286 285 285 286 286 287 288 288 289 289 289 289 289 289 289 290 290 290 291 291 291 291 292 292 292 291 291 291 291 291
292 291 291 291 291 291 291 291 291 290 290 289 289 288 288 288 288 288 288 288 288 288 288 287 287 287 287 286 286 286 287 287 287 287 287 287 286 286 285 285 285 286 287 287 287 288 288 288 288 287 287 287 286 286 286 285 285 285 286 287 288 288 289 289 289 289 289 289 289 290 290 290 290 291 291 291 291 291 291 291 291 291 291 291 291
290 290 290 290 290 289 289 289 289 289 289 289 289 288 288 288 288 288 287 287 287 287 287 286 286 286 286 285 285 285 285 286 286 286 286 286 285 285 285 284 285 285 286 286 287 287 288 288 288 287 287 287 286 286 285 285 285 285 286 287 288 289 289 289 289 289 289 290 289 289 290 290 290 290 290 290 291 291 291 291 291 291 291 291 291
289 289 289 289 289 289 289 289 289 288 288 288 288 288 288 288 287 287 287 287 287 286 286 286 286 285 285 284 284 284 284 284 285 285 285 285 284 284 284 284 284 285 286 286 287 287 287 288 288 288 287 287 286 286 286 285 285 285 286 288 289 289 289 289 289 289 289 289 290 290 289 290 290 290 290 290 290 290 290 290 290 290 290 290 290
Wind_Speed
12 13 14 16 17 18 21 23 21 18 16 16 17 18 18 19 19 19 18 18 18 18 18 17 17 16 16 15 14 13 12 11 10 9 8 8 7 7 7 7 6 5 4 4 3 2 1 1 1 1 3 4 4 5 5 5 6 6 6 7 8 8 9 11 11 10 11 11 10 11 11 12 13 12 12 12 12 12 13 13 14 15 15 16 16
10 11 12 14 16 18 20 21 21 19 17 17 17 17 16 17 18 19 19 20 20 20 19 18 18 17 16 16 15 14 13 12 11 9 8 8 8 7 7 6 5 5 4 4 3 2 1 0 1 1 2 4 5 6 6 6 7 7 6 7 8 9 9 11 12 12 12 12 11 12 12 12 13 12 12 13 13 12 14 14 14 14 15 15 14
7 9 11 12 13 15 17 19 21 20 19 19 18 17 16 16 17 18 19 19 20 21 20 19 19 18 17 16 15 15 14 13 12 11 10 9 9 8 7 6 5 5 4 3 2 1 1 1 1 1 2 3 4 5 6 6 7 7 7 8 9 10 10 11 13 13 14 13 12 12 12 11 12 13 13 13 13 14 15 15 15 14 14 14 15
3 6 8 10 11 11 12 16 19 20 19 18 17 17 16 16 16 18 18 18 19 21 21 21 20 20 18 17 17 16 15 14 13 12 11 11 10 9 8 6 5 4 3 2 1 1 1 2 2 2 2 3 4 5 5 6 7 8 8 9 9 10 11 11 13 14 14 14 14 13 13 13 14 13 13 13 14 14 15 15 14 14 14 14 15
6 4 5 7 8 8 10 14 18 20 19 17 16 16 16 16 16 17 17 18 18 20 21 22 22 22 21 20 18 17 17 16 14 13 13 12 11 9 8 7 5 4 3 2 2 2 2 2 3 3 3 4 4 5 5 6 7 8 9 9 10 10 11 11 13 14 15 16 15 15 15 15 15 14 13 14 14 13 13 14 14 14 15 15 15
11 9 7 6 7 8 11 14 17 19 19 18 17 16 16 17 17 17 17 18 18 19 21 21 21 21 21 21 20 19 18 17 15 14 13 12 11 9 8 7 6 4 3 3 3 2 2 3 3 4 4 5 5 6 6 7 8 9 9 10 11 11 12 13 14 15 16 17 17 16 15 15 15 15 13 13 14 14 13 14 14 14 14 14 14
11 10 10 8 6 7 11 13 14 16 17 17 17 17 17 17 18 17 17 18 19 20 22 23 22 22 22 21 20 20 18 17 16 15 14 13 11 10 8 6 5 4 3 3 2 2 2 3 3 4 5 5 6 6 7 8 9 10 10 10 10 11 12 13 14 15 17 17 16 16 15 14 14 14 13 13 14 14 14 14 12 11 10 11 12
8 8 8 7 7 7 9 10 11 13 14 14 15 16 17 18 18 17 17 18 20 21 23 25 24 23 22 21 20 19 18 17 16 15 14 12 11 9 8 6 5 4 3 3 2 2 2 2 3 3 4 5 7 8 9 10 10 11 11 11 12 12 13 14 14 15 16 17 17 16 15 15 14 14 13 12 13 13 12 11 12 12 12 13 14
5 6 6 6 7 8 10 10 10 11 11 12 14 16 18 18 18 18 17 18 20 21 23 24 23 23 23 21 20 19 18 17 16 16 14 12 11 9 8 6 6 5 4 3 2 2 2 2 3 4 6 7 8 9 11 11 12 13 12 12 13 13 14 15 15 15 16 17 17 16 15 15 14 14 13 12 11 11 11 11 13 14 14 14 15
4 5 6 6 7 8 9 10 10 10 10 11 12 14 16 17 17 18 18 18 19 19 20 21 21 22 22 22 21 20 18 18 19 18 15 12 10 8 7 6 5 4 4 3 2 2 2 3 4 7 10 11 9 9 11 12 12 13 14 14 14 14 15 16 16 17 17 17 17 16 16 16 15 14 15 14 13 13 13 13 14 14 14 14 14
6 6 7 8 8 9 9 10 10 10 10 10 11 12 14 15 16 17 17 18 18 18 19 20 22 22 22 22 22 20 19 21 22 20 16 13 10 7 6 6 4 4 3 3 3 3 3 4 5 7 9 9 9 11 14 14 13 13 14 15 16 17 17 17 17 17 17 18 18 18 17 17 16 15 16 15 14 14 13 13 14 14 14 13 12
7 8 9 9 10 10 10 10 11 11 10 10 10 11 11 13 15 16 16 17 16 17 18 20 21 22 21 21 21 19 20 23 22 18 15 13 10 7 5 4 4 4 4 3 3 4 4 5 6 6 7 8 10 12 12 13 13 14 16 16 18 19 21 21 21 20 19 19 20 19 19 19 18 16 16 15 14 14 14 15 15 15 15 15 13
8 8 9 11 11 11 11 11 11 11 11 11 10 11 11 12 13 14 15 15 15 16 17 18 20 20 21 20 19 18 21 22 19 16 13 10 8 6 5 5 4 5 5 4 5 5 5 6 7 7 7 9 10 10 9 11 13 14 16 17 18 19 20 21 22 23 23 22 22 22 21 19 19 18 16 15 15 16 16 16 16 16 17 17 16
8 9 10 11 11 12 12 12 12 12 12 11 11 11 11 11 11 13 15 15 15 16 17 18 20 20 21 20 17 18 22 22 18 15 12 8 6 5 5 5 5 5 6 6 6 6 7 7 8 8 8 8 9 9 10 12 12 13 14 15 17 18 18 20 20 23 25 26 26 26 24 23 22 21 19 18 19 19 19 19 18 19 21 21 21
9 10 11 12 12 12 12 12 12 12 12 12 12 12 11 11 11 13 15 15 16 17 17 18 19 19 20 20 18 19 22 21 17 14 11 8 5 4 5 6 6 7 7 7 8 8 8 9 9 9 9 9 10 11 13 14 14 15 15 16 17 17 18 19 20 22 24 26 27 26 25 24 24 23 22 21 21 21 21 22 22 22 23 24 24
11 11 11 11 11 11 12 12 13 13 13 13 13 13 12 11 11 13 14 14 14 15 16 18 20 19 19 20 20 21 22 20 16 14 11 8 4 3 5 7 7 8 8 9 10 10 10 10 10 10 11 12 12 14 16 16 15 16 17 17 17 17 18 19 21 23 25 27 28 27 27 27 26 25 23 22 21 19 19 22 23 23 24 25 23
12 13 12 12 11 11 12 13 13 13 13 14 14 13 12 12 12 14 15 14 13 15 16 17 19 21 22 23 22 21 20 18 16 14 11 7 4 3 5 7 7 9 9 10 11 11 11 11 11 12 13 13 13 15 18 18 16 16 18 18 18 19 20 19 20 22 24 26 28 29 31 32 32 33 32 30 29 25 22 23 23 23 24 22 19
14 14 13 13 13 13 13 14 15 14 14 14 14 13 12 12 13 14 16 14 13 15 15 15 18 24 26 24 21 20 21 19 15 12 10 7 5 3 5 7 8 9 10 11 11 11 12 13 15 15 15 15 15 17 20 18 16 16 19 20 21 22 21 20 21 22 23 24 25 27 29 30 30 32 33 34 35 33 30 29 28 27 26 23 20
15 15 14 14 14 15 15 15 16 16 16 15 14 14 13 12 13 15 15 13 13 15 16 17 20 24 25 23 19 18 19 17 13 10 9 8 5 3 5 8 9 10 11 12 12 11 12 14 16 17 16 15 16 18 18 17 16 18 20 22 22 23 22 22 22 23 23 23 24 24 25 25 25 26 27 28 30 32 33 33 32 31 30 28 24
16 15 14 14 15 15 15 16 16 16 16 15 15 14 13 12 14 15 14 13 15 18 21 22 24 25 24 22 18 14 14 14 11 10 9 8 6 5 6 9 10 11 11 12 12 14 15 15 16 16 16 15 17 18 19 20 20 21 22 22 23 23 22 22 23 23 23 24 24 24 25 25 24 25 25 25 26 28 31 32 32 32 31 29 27
16 15 15 15 15 15 16 16 17 16 16 16 15 14 13 14 15 14 13 14 16 20 24 26 26 24 22 20 16 13 12 11 10 9 8 8 7 7 8 9 10 11 12 14 15 16 17 17 16 17 17 17 19 21 23 25 25 24 23 24 25 25 25 25 25 25 25 25 25 25 25 24 24 24 24 24 25 26 28 29 30 31 32 31 29
17 16 16 15 15 16 16 17 17 17 16 15 15 15 15 14 14 14 14 15 19 23 26 26 25 23 21 19 16 14 11 9 7 7 8 8 9 9 9 9 10 11 13 15 16 17 18 19 18 18 19 20 22 25 26 28 28 26 25 27 27 27 28 28 27 26 26 25 24 24 24 24 24 24 24 24 24 24 25 26 28 29 32 32 30
17 17 17 16 16 16 17 18 18 17 16 16 17 17 14 12 13 16 17 19 23 25 25 24 23 21 19 17 14 10 7 5 5 5 6 7 8 9 9 11 12 13 13 15 17 18 19 18 17 19 22 24 25 26 26 26 26 25 24 25 26 27 28 28 27 26 25 25 24 25 25 24 24 25 24 24 24 23 23 24 25 27 29 31 32
18 18 17 17 17 18 18 19 18 17 18 18 16 13 11 11 14 17 20 23 25 25 23 23 22 18 13 11 10 7 5 4 4 4 5 7 8 9 11 13 15 16 15 15 16 17 17 18 20 23 25 25 25 24 24 23 22 22 22 23 24 24 25 25 25 24 24 24 24 25 25 25 25 25 25 24 23 23 23 23 24 25 27 29 30
18 18 18 18 18 19 19 18 17 18 18 15 12 10 11 12 15 18 21 24 26 25 23 21 18 14 11 9 9 8 6 5 4 4 5 7 9 11 14 15 16 17 16 14 14 15 17 20 22 24 25 24 24 23 22 21 20 21 22 22 23 22 22 22 22 22 23 23 23 24 24 24 24 25 24 24 24 24 24 24 24 24 25 27 28
20 20 20 20 19 19 18 17 17 16 13 11 11 12 14 16 18 21 23 26 28 25 20 16 14 12 11 9 8 7 5 4 3 2 4 6 8 11 14 14 14 16 16 15 14 16 17 19 21 22 22 22 21 21 20 20 21 21 21 20 21 20 20 20 21 21 22 23 23 24 24 23 23 24 23 23 24 24 24 24 24 24 24 24 25
22 21 21 20 19 18 18 15 12 10 9 10 11 12 14 19 24 27 29 28 26 22 18 15 13 12 11 9 7 5 3 2 2 0 3 5 6 9 10 10 11 13 14 13 13 15 17 18 20 20 20 19 19 19 20 20 20 19 19 18 18 19 19 20 21 22 23 24 24 25 24 23 23 23 22 23 24 23 23 24 24 24 23 23 22
22 21 20 19 18 17 15 12 11 9 10 11 13 14 18 23 29 30 29 28 25 21 19 16 13 11 10 8 6 3 2 2 1 2 5 6 7 8 8 9 10 11 11 13 15 16 17 18 18 18 17 17 18 18 18 18 18 18 18 17 18 19 20 21 22 23 24 25 25 26 26 25 24 24 23 22 23 22 23 24 24 24 23 22 20
23 22 20 18 16 13 11 11 11 12 13 15 17 19 22 27 29 27 24 24 23 22 20 17 13 11 9 7 5 3 3 2 1 5 7 7 7 7 8 9 10 10 12 15 16 16 15 16 16 16 16 17 17 17 17 18 18 18 18 18 19 19 19 20 21 22 22 23 24 25 26 25 24 23 23 23 23 23 24 25 25 25 24 22 20
23 22 20 17 13 11 11 12 13 16 19 23 25 24 24 27 28 26 23 21 20 19 18 16 13 11 9 7 5 4 2 0 4 6 6 6 7 8 9 9 10 10 12 13 13 13 14 15 15 16 16 17 17 18 18 19 19 18 19 19 19 19 20 20 21 21 22 22 23 24 24 23 23 22 22 23 23 23 24 26 27 26 24 23 22
20 19 17 15 14 14 15 16 18 19 21 24 25 24 23 24 24 23 22 21 20 19 17 15 13 11 9 7 6 3 1 2 3 4 4 5 7 7 7 7 7 8 10 10 11 12 14 15 15 16 16 17 18 18 19 19 19 19 19 19 19 20 20 21 21 21 22 22 23 23 23 23 23 22 22 22 23 23 22 23 25 26 25 25 25
18 18 16 16 17 17 18 20 22 22 21 21 19 19 20 21 20 20 21 21 18 16 13 12 11 8 6 7 6 3 2 3 3 3 4 5 6 6 5 6 7 10 10 9 10 12 14 14 15 16 17 17 18 18 19 19 19 19 19 20 20 20 20 21 22 23 23 23 23 23 23 23 23 22 22 22 22 21 21 21 23 23 23 24 26
18 17 17 18 20 22 24 25 24 22 21 20 20 21 21 19 18 20 21 19 16 14 12 10 8 6 6 7 6 4 4 4 4 4 5 7 6 6 6 7 9 11 11 10 11 13 14 15 16 16 17 18 18 18 19 19 19 20 20 20 21 21 21 22 23 23 23 23 23 23 23 23 23 22 22 22 21 21 21 20 21 21 21 21 22
15 17 20 22 24 26 27 26 23 20 19 20 21 22 21 20 19 20 20 19 17 16 14 11 9 8 8 7 6 5 5 5 5 6 7 8 8 7 7 8 9 9 9 11 12 13 15 15 16 17 17 18 18 19 19 20 20 20 20 21 21 22 22 22 22 22 23 22 22 22 22 22 21 21 21 21 21 21 21 20 20 20 20 19 19
18 22 26 29 30 29 26 24 24 24 22 21 21 20 21 23 22 20 18 18 16 15 14 13 11 10 8 6 6 6 6 6 6 7 9 10 11 9 8 9 9 10 11 12 13 14 15 16 16 17 18 18 19 19 20 20 21 21 21 21 22 22 23 23 23 23 23 22 22 22 22 23 23 22 22 21 21 20 19 19 19 19 18 17 17
27 29 31 33 32 30 27 27 29 28 24 21 21 20 21 22 19 16 16 16 15 14 13 12 11 9 7 5 5 5 5 4 5 7 9 11 11 9 9 10 11 12 12 13 14 15 15 16 16 17 18 18 19 20 20 21 21 21 21 21 22 23 23 23 23 23 23 23 23 23 24 25 25 24 23 23 23 21 20 19 18 18 17 17 16
32 33 33 31 30 29 27 26 27 27 24 22 21 20 19 17 15 14 14 13 12 12 12 11 11 9 7 5 4 3 2 1 2 5 7 9 9 9 10 11 12 12 13 14 15 16 16 16 17 17 18 19 20 20 21 21 21 21 21 22 22 23 24 24 25 26 26 25 24 24 25 25 24 22 22 22 21 20 19 19 18 17 17 17 16
31 30 29 28 26 24 23 21 22 23 23 21 19 18 17 14 13 12 11 11 11 10 10 10 10 8 7 7 7 6 5 5 4 1 4 7 9 10 11 12 12 12 14 15 16 16 17 17 17 17 18 19 20 21 21 21 22 22 22 22 23 24 25 25 25 26 26 25 25 24 24 23 22 21 21 21 20 18 18 18 17 16 15 16 16
29 27 27 26 23 21 21 21 20 18 17 16 15 15 14 12 11 10 10 11 10 9 8 8 8 6 5 5 5 6 7 7 4 1 3 6 9 11 11 12 12 13 14 16 17 17 18 17 17 18 19 20 20 21 22 22 22 22 22 23 23 24 24 24 23 23 23 23 23 22 21 21 20 19 19 19 19 18 17 16 16 15 14 15 15
23 23 23 22 20 20 22 21 17 14 13 13 13 12 11 10 9 9 9 10 9 8 7 7 5 4 5 4 3 3 3 3 2 2 3 6 10 11 10 11 12 14 14 16 18 18 18 17 17 18 19 20 21 21 22 22 23 22 23 23 23 23 24 24 23 23 23 23 22 22 21 20 19 18 18 17 17 16 15 15 15 15 15 14 14
18 17 17 18 18 18 18 17 15 14 13 12 11 11 9 8 8 8 9 9 8 7 6 5 5 5 6 5 3 0 1 3 3 3 3 5 9 10 10 11 13 13 14 16 18 18 17 17 17 18 19 20 20 20 21 23 23 23 23 23 24 24 24 24 23 23 23 23 22 22 22 21 20 19 16 14 14 14 14 13 13 14 14 14 12
14 13 13 13 13 13 14 15 14 13 11 9 8 8 7 6 7 8 8 7 6 6 5 4 5 5 4 3 2 0 1 2 3 4 3 4 7 9 9 10 12 13 14 16 17 18 17 17 17 19 20 20 20 21 23 23 23 23 23 24 24 24 25 25 25 24 23 22 21 22 23 23 21 18 14 11 11 11 12 12 11 12 12 11 11
11 11 10 9 10 13 15 14 12 11 10 9 8 7 7 7 7 7 7 6 4 4 4 3 3 3 1 3 2 1 1 2 3 4 4 5 6 8 8 10 11 12 13 15 16 17 17 17 18 19 19 19 21 24 24 23 23 23 23 24 25 25 25 25 25 25 22 20 21 22 23 22 19 15 10 9 10 9 9 10 9 9 9 9 10
13 12 10 10 12 16 16 14 12 12 11 11 10 9 8 8 8 7 6 5 4 3 3 2 2 2 1 2 2 2 2 3 3 4 5 5 6 7 8 9 10 11 13 14 16 17 17 17 18 18 18 19 22 25 25 23 22 21 21 22 24 25 24 25 25 25 22 21 21 21 20 18 15 11 7 7 7 7 7 7 7 7 8 9 10
12 11 10 12 14 15 14 13 13 12 11 11 10 10 9 9 8 7 6 5 4 3 3 3 3 2 2 2 2 3 3 3 3 4 5 5 6 7 7 8 9 11 12 14 16 16 16 17 18 18 17 19 24 27 26 25 23 21 21 22 23 24 26 27 26 24 22 20 19 18 16 13 11 8 3 4 5 6 6 7 7 8 9 10 11
11 11 13 14 15 14 14 13 12 12 11 10 10 9 9 9 8 7 6 6 5 3 3 3 3 3 3 3 3 3 3 3 3 4 5 5 6 7 7 8 8 10 11 13 15 16 16 17 18 18 17 20 25 27 26 25 24 22 23 25 25 25 26 26 23 21 19 18 16 15 12 9 7 4 1 3 4 5 7 7 8 9 9 10 12
13 14 14 15 15 15 14 14 13 13 12 11 11 10 10 8 7 7 6 6 5 4 3 3 3 4 4 3 3 3 3 3 4 4 5 5 6 6 7 8 8 9 11 12 14 15 16 16 18 17 16 19 24 27 27 26 26 25 26 27 27 26 25 23 21 19 17 14 13 12 9 6 5 3 3 4 6 7 9 10 10 11 12 13 15
14 15 15 15 15 15 14 13 13 13 12 11 11 10 9 8 7 6 5 5 4 3 4 4 5 5 5 4 4 4 3 3 4 4 5 5 6 6 7 7 8 9 10 11 13 15 15 16 17 17 16 18 23 26 28 29 32 32 31 29 27 25 23 20 19 17 15 12 12 11 8 6 6 5 6 7 8 9 11 12 12 14 16 18 19
15 15 15 16 15 14 13 13 12 12 11 11 10 10 8 7 7 6 5 4 4 4 5 6 6 5 5 5 5 4 4 4 4 4 5 6 6 6 7 7 7 8 9 10 12 14 15 16 17 18 17 18 21 24 27 31 35 37 36 30 25 23 22 20 18 16 14 12 11 11 10 10 10 9 9 10 11 12 14 16 16 18 20 21 21
16 16 15 15 15 14 13 13 13 12 11 10 10 10 9 8 7 7 6 5 5 6 6 6 6 6 5 6 6 5 5 5 5 5 5 6 6 6 7 7 7 8 8 9 11 13 14 16 17 18 17 19 21 22 26 31 35 37 36 30 24 22 22 20 18 16 15 13 12 12 12 13 14 14 13 13 15 17 19 20 21 22 22 22 21
16 16 15 15 14 13 13 13 13 12 11 11 11 10 9 8 7 7 7 7 7 7 7 6 6 6 6 6 6 6 5 5 5 5 5 6 6 6 7 7 7 8 8 9 11 12 13 15 18 18 17 19 22 24 26 30 33 35 35 30 24 21 21 20 18 17 16 15 14 14 14 15 17 17 17 17 18 19 21 22 21 21 23 23 22
Wind_Direction
216 218 218 221 225 227 230 232 232 231 229 226 225 222 217 212 210 208 205 201 196 193 193 194 193 193 191 190 188 186 183 181 180 179 174 167 159 152 149 148 147 142 141 143 134 114 72 6 313 296 308 308 301 295 285 280 283 277 271 272 272 267 267 272 277 283 285 286 285 285 288 290 289 287 288 288 285 283 282 281 281 281 279 275 272
232 232 228 226 230 234 236 237 237 237 233 231 231 227 220 215 211 208 205 204 201 198 198 198 197 197 196 195 194 192 189 187 185 185 183 175 165 159 158 157 153 148 148 151 151 151 154 258 294 279 285 289 290 289 286 285 285 280 276 278 280 278 275 277 282 287 289 290 289 288 288 289 288 289 291 290 288 287 284 281 279 278 276 272 268
250 249 242 237 237 239 241 243 242 239 235 233 232 229 225 219 214 211 208 205 203 202 202 201 200 201 200 199 197 195 193 190 187 188 187 182 176 170 167 165 160 157 157 158 166 181 197 233 246 244 265 277 281 284 285 283 284 287 284 281 281 282 280 280 283 286 289 292 291 290 290 288 286 286 287 286 286 287 285 283 280 277 273 269 267
293 264 255 252 251 249 251 256 254 248 241 236 231 228 227 223 219 216 213 209 205 203 204 203 203 203 201 201 199 196 194 190 188 189 188 186 182 176 174 173 170 171 177 188 227 251 256 265 266 260 268 277 280 283 283 281 284 289 287 283 280 279 278 277 278 281 286 288 288 288 290 289 285 284 284 284 282 282 282 283 281 278 274 271 270
9 320 280 270 268 268 268 268 264 258 252 246 239 233 230 228 225 221 217 212 208 205 205 205 204 204 203 202 199 196 194 192 190 190 186 182 180 178 177 178 177 184 198 218 240 256 269 275 282 286 283 280 282 284 286 286 286 285 284 284 284 283 282 278 276 278 280 282 284 286 286 285 285 284 283 284 284 283 281 281 281 279 276 274 272
18 5 348 321 302 291 275 264 260 258 256 255 251 245 238 232 228 223 218 215 211 207 204 204 204 206 205 202 199 196 194 193 192 189 183 178 177 178 178 180 185 194 208 224 228 239 265 277 282 287 284 282 282 281 283 284 283 281 280 280 281 283 283 281 280 279 278 278 280 282 281 280 281 282 281 281 284 286 286 285 282 276 272 271 269
15 6 357 344 322 296 277 267 265 264 261 261 259 254 249 241 235 228 221 217 213 205 204 206 206 209 209 203 199 196 193 192 191 185 180 177 177 177 179 183 191 195 198 207 211 226 251 264 276 283 285 287 288 286 286 284 281 278 276 276 277 277 278 278 279 280 281 281 280 280 280 279 277 278 280 280 280 281 283 285 286 282 277 277 275
6 355 348 339 324 307 294 288 283 275 270 267 264 259 254 249 242 235 225 219 213 207 210 212 210 209 208 201 196 193 191 190 186 180 178 178 177 177 179 183 187 186 186 187 189 208 234 250 269 277 284 284 280 280 280 279 280 279 276 275 274 274 274 275 275 276 278 279 280 281 281 281 279 278 279 278 276 277 280 285 291 293 290 286 282
355 341 334 324 317 313 307 301 292 282 274 267 263 259 256 250 244 239 229 219 213 215 220 219 212 207 201 194 190 187 184 184 181 177 176 176 175 175 175 176 180 180 179 182 193 214 251 269 257 266 295 301 290 282 279 273 271 271 272 275 275 273 272 271 271 272 273 274 275 277 278 278 279 281 281 279 280 284 286 286 286 285 285 284 280
347 334 327 321 312 305 299 293 287 283 277 268 261 258 255 251 246 240 234 227 222 223 224 218 209 202 193 186 183 178 177 180 180 177 175 173 172 172 171 172 174 180 186 200 221 236 267 284 273 285 307 321 320 308 300 290 278 269 266 265 266 269 271 270 269 268 269 271 272 273 274 273 274 277 280 282 285 286 284 281 279 280 282 281 279
341 331 324 319 311 303 296 291 287 284 278 271 265 258 254 251 247 242 238 234 229 222 216 210 205 202 194 184 177 171 174 183 185 184 183 178 169 164 168 172 180 197 206 218 241 258 279 291 292 295 303 313 316 308 302 299 294 283 275 268 261 260 262 265 267 267 268 269 270 270 271 271 270 271 274 277 280 281 282 281 279 279 277 276 277
329 326 322 315 309 304 299 295 294 291 284 276 268 261 255 251 249 245 239 235 228 217 212 208 205 202 193 182 172 169 178 185 187 186 186 182 170 163 173 184 197 216 222 234 254 268 281 287 294 293 285 291 302 302 296 295 297 291 285 280 271 263 257 256 259 262 265 268 269 267 267 269 271 268 268 272 276 279 281 280 278 278 275 272 273
320 318 314 311 307 303 300 297 294 293 288 281 271 261 255 249 246 245 240 234 229 223 216 209 202 194 186 178 170 170 179 183 183 180 178 177 171 168 183 197 213 229 235 246 260 269 278 284 290 288 282 289 298 297 292 296 296 290 287 283 278 273 267 260 257 256 258 263 267 267 265 267 270 268 267 270 273 275 277 276 276 276 273 269 270
313 307 304 305 302 297 296 294 291 290 287 281 272 262 254 248 244 244 240 232 229 227 221 211 200 189 183 176 166 169 178 179 178 176 172 169 169 169 184 203 226 239 241 251 261 267 274 277 283 286 286 290 293 291 294 298 295 290 286 281 277 276 275 271 264 259 255 254 257 261 263 264 266 268 269 268 268 269 271 273 275 275 274 275 275
305 301 298 297 296 295 294 290 287 285 283 278 272 264 257 249 245 243 238 229 225 225 220 208 196 184 178 172 161 165 176 177 174 172 167 162 158 158 186 210 236 244 245 253 258 263 268 267 274 283 289 294 293 289 293 297 295 290 285 280 277 275 273 271 265 259 255 251 252 257 262 263 264 265 267 267 268 270 270 269 270 271 274 276 275
301 298 294 292 292 292 291 289 285 280 277 274 269 263 256 247 243 243 239 228 218 215 210 199 188 178 172 168 163 165 172 174 171 167 165 163 150 157 202 223 243 249 254 260 260 264 267 266 273 282 289 294 294 290 293 295 293 290 286 282 280 276 274 273 267 261 259 257 258 260 261 260 258 258 259 260 266 275 277 270 264 265 268 269 268
299 297 294 294 293 291 290 287 282 277 273 269 264 259 252 245 241 242 238 226 210 204 199 188 182 178 173 169 166 164 167 170 169 168 170 172 160 178 223 241 256 260 265 270 268 269 268 266 273 282 286 291 289 289 294 295 291 289 288 285 284 280 278 277 274 271 268 266 266 266 265 263 261 259 259 258 259 267 273 266 260 261 265 266 266
296 295 294 295 294 293 290 285 281 276 270 266 262 255 247 243 241 239 232 221 207 198 189 177 178 181 177 171 166 165 168 172 174 177 183 188 183 210 253 265 269 270 274 275 274 275 274 274 278 280 279 282 285 287 293 293 289 290 291 289 287 284 282 281 279 277 275 274 273 272 271 271 270 266 263 259 257 257 259 257 255 258 262 261 263
290 290 290 292 292 291 289 284 279 274 268 266 261 253 245 241 240 237 227 210 196 190 183 173 172 173 169 163 159 161 167 173 177 185 197 203 204 234 276 280 277 277 280 282 283 282 282 285 287 284 281 283 287 289 291 288 285 289 291 289 284 281 281 281 279 278 277 274 273 273 272 272 272 269 265 263 258 254 252 251 251 252 255 256 257
285 284 283 286 288 288 286 281 276 271 267 266 260 252 246 238 234 230 217 198 191 189 182 173 167 165 164 161 155 153 164 177 187 196 206 216 225 252 282 286 284 285 287 290 291 290 289 290 290 290 290 290 290 291 291 289 286 288 287 282 278 278 281 281 280 280 279 275 272 272 271 269 268 266 264 262 258 252 248 246 244 244 248 252 252
280 277 276 279 283 285 283 279 274 270 266 265 260 253 245 238 230 220 203 192 189 183 173 165 162 161 161 159 157 160 172 185 194 201 210 225 241 261 281 286 288 293 295 294 292 292 292 292 292 293 292 290 291 292 290 288 286 285 281 276 273 275 279 280 280 280 278 274 271 270 268 266 265 263 261 259 256 253 249 245 242 241 243 246 248
273 271 270 272 277 281 280 277 274 270 266 262 257 249 240 232 222 207 192 183 177 171 165 161 159 159 162 166 172 176 183 192 200 208 219 234 250 267 278 280 285 293 295 292 291 291 290 291 292 288 285 286 290 289 287 287 287 284 279 275 274 276 277 278 278 276 273 270 267 265 263 263 262 261 260 258 256 254 252 248 245 244 243 244 246
268 266 265 267 273 276 277 275 271 266 263 259 253 243 229 215 207 200 191 178 168 163 160 158 157 161 168 176 181 182 184 194 205 219 233 247 263 276 280 285 293 297 293 289 290 290 291 292 289 283 283 289 292 292 292 293 291 286 281 279 280 280 279 277 274 271 268 265 263 262 260 259 258 258 257 257 256 255 254 251 249 247 246 246 246
262 260 259 262 267 271 274 272 266 261 260 255 244 228 208 196 193 190 182 171 160 154 153 156 157 162 168 175 181 177 163 166 194 224 245 259 273 284 291 299 304 305 299 291 288 287 288 290 290 291 296 302 304 303 303 301 297 293 290 290 288 285 280 275 270 266 263 261 259 258 257 255 255 256 255 255 256 256 254 253 252 250 249 248 248
259 257 256 258 261 266 269 266 261 261 256 240 217 197 184 177 172 168 164 159 153 149 151 154 155 157 158 158 161 159 151 159 187 233 278 297 304 305 308 311 310 309 304 294 287 288 292 297 301 304 308 311 310 308 306 303 300 298 296 294 290 284 278 272 267 263 261 259 258 257 258 257 257 258 258 257 257 256 253 252 251 249 249 249 249
261 258 258 258 257 260 262 262 261 256 239 211 195 191 182 169 160 155 152 151 149 148 148 148 148 149 149 147 146 146 153 172 185 223 309 325 325 317 316 316 313 310 308 303 301 305 307 309 309 308 307 307 305 303 300 297 296 295 295 293 286 279 274 270 267 264 262 262 261 260 261 262 261 262 261 258 256 254 251 250 249 248 247 247 248
260 258 257 254 251 253 254 252 246 229 203 191 188 184 174 163 156 152 150 150 150 149 147 146 147 145 138 132 132 138 156 179 165 46 336 333 324 316 315 312 309 309 309 308 311 311 309 308 306 304 304 304 303 301 298 294 293 292 293 292 286 281 278 274 272 270 268 267 266 265 264 265 264 263 261 257 255 252 248 247 247 248 246 245 247
257 255 253 247 246 248 242 224 208 196 190 184 171 160 155 153 150 150 152 152 149 145 141 133 127 124 122 121 129 150 161 143 100 342 330 325 319 318 316 310 310 312 309 306 308 308 307 307 307 307 308 307 306 304 301 298 297 296 294 292 289 286 283 279 274 272 270 269 268 266 266 265 263 262 259 256 253 250 246 244 243 244 244 243 244
251 249 247 245 243 235 215 198 191 184 171 156 146 143 145 144 141 139 142 144 140 135 129 121 113 113 115 118 134 152 139 128 308 312 316 319 321 321 315 309 309 309 303 301 305 308 307 308 309 309 309 308 307 307 306 304 302 299 296 293 290 286 284 280 276 273 271 270 269 268 267 266 263 260 257 254 252 249 246 243 241 240 239 238 239
245 243 241 239 227 200 184 182 176 162 147 135 130 129 133 137 137 135 135 138 139 136 132 131 132 131 127 132 151 152 135 265 305 317 328 335 333 325 316 310 309 309 310 311 311 309 308 309 310 310 310 309 309 308 308 307 304 301 298 295 291 287 282 279 276 274 273 272 270 269 268 267 264 261 257 254 253 252 248 244 241 239 236 235 238
244 241 234 223 203 183 174 168 157 144 134 130 127 124 123 128 133 138 141 145 146 145 145 147 150 148 142 144 152 148 93 329 334 352 356 345 335 324 316 315 319 329 335 329 316 311 312 311 310 309 308 308 308 308 308 307 304 302 301 298 294 291 286 281 278 277 276 274 271 269 267 265 264 262 258 255 254 252 249 246 242 239 236 236 239
237 233 222 205 191 178 165 154 145 135 128 125 122 118 118 119 120 126 136 145 149 150 152 153 153 154 147 138 136 124 63 39 39 31 8 348 337 330 333 345 348 351 350 331 310 311 315 311 308 309 308 308 308 308 307 306 304 303 303 300 298 295 291 287 285 283 280 277 274 271 268 265 263 262 258 255 253 250 247 243 239 236 236 237 238
230 219 201 183 172 160 149 142 138 135 131 129 126 125 126 123 114 113 122 134 141 144 147 150 150 149 143 135 131 115 80 68 63 46 20 2 355 2 9 3 354 352 348 331 315 316 317 311 308 308 307 307 308 308 305 304 303 304 303 301 300 297 294 292 290 287 283 279 276 273 270 266 264 262 259 255 251 248 244 239 234 232 233 235 237
209 187 171 159 151 146 142 137 134 132 133 135 136 135 133 129 125 121 122 126 130 132 136 143 148 148 143 132 115 95 85 80 66 47 31 22 24 27 12 350 341 342 340 330 322 319 317 313 311 310 309 309 308 307 305 304 305 305 304 302 300 299 297 295 292 288 285 282 279 277 273 269 265 262 260 256 251 246 241 236 232 229 229 232 234
166 156 151 144 140 140 138 132 130 132 134 136 136 135 134 134 134 136 136 136 136 136 140 146 152 153 146 128 105 89 82 74 58 44 36 33 33 28 6 352 350 346 337 329 324 319 316 315 314 313 313 312 311 310 308 306 306 306 305 303 301 300 299 296 293 290 288 286 283 280 276 273 268 264 260 256 251 246 240 234 230 228 226 228 232
137 135 134 134 136 136 133 130 130 132 134 136 137 138 141 143 144 146 147 146 145 146 149 152 156 159 154 139 117 100 88 72 52 42 38 36 32 21 4 357 353 345 337 333 328 322 319 318 317 316 317 316 315 313 311 308 307 306 304 303 301 300 298 297 295 293 292 290 286 283 279 276 271 264 259 255 250 245 240 234 230 227 225 227 231
125 126 128 131 134 134 133 134 137 139 142 147 149 149 154 157 155 152 151 151 151 153 153 151 153 160 170 178 173 149 118 76 36 36 31 27 24 14 2 354 348 341 338 336 332 327 323 321 320 319 319 319 318 317 314 312 310 308 305 303 301 299 297 296 295 294 293 290 288 285 282 278 272 265 260 256 251 243 236 231 228 226 225 226 229
121 125 129 132 134 136 138 141 144 148 154 157 153 150 153 154 151 149 151 152 155 157 156 156 165 174 181 187 196 208 225 235 237 299 4 6 8 4 356 352 347 343 340 338 335 331 328 326 325 323 321 320 320 319 317 315 312 309 306 304 302 300 300 299 297 296 295 292 290 288 285 280 275 269 263 256 249 241 234 228 224 222 222 223 226
114 123 130 134 135 138 144 147 147 147 149 147 141 140 143 145 147 150 153 155 160 163 163 169 178 179 167 174 199 222 230 235 238 271 352 3 5 360 353 351 348 343 340 339 338 337 332 329 328 325 322 320 320 319 318 316 313 310 308 306 305 304 303 301 299 298 297 294 291 289 288 284 279 275 268 257 246 237 232 227 220 216 218 220 222
105 116 127 135 139 144 148 150 149 144 139 137 139 143 146 149 153 155 156 159 165 168 170 172 167 151 153 174 200 235 254 276 331 1 359 3 2 356 350 349 347 343 340 339 339 339 335 331 329 326 322 321 320 319 317 316 314 312 310 308 307 305 304 302 301 300 299 297 294 292 292 291 288 283 273 258 243 233 228 224 218 215 218 223 222
105 111 122 133 141 145 147 147 146 144 140 140 145 149 152 155 158 156 156 160 163 164 168 165 149 148 171 189 185 169 306 318 340 346 350 0 358 351 346 346 345 342 340 340 340 339 336 333 330 327 324 323 321 318 317 316 315 314 313 311 309 308 306 306 305 303 302 300 298 298 299 299 298 293 278 253 236 230 225 220 218 215 216 220 217
109 110 121 131 136 135 133 133 135 134 129 125 129 134 138 143 146 145 147 152 158 162 163 151 138 151 190 227 233 225 323 332 338 336 337 348 350 346 343 343 343 342 340 340 341 340 337 334 332 330 328 325 322 320 319 317 316 315 314 313 312 311 311 311 310 309 307 304 303 304 307 308 308 302 281 245 226 224 220 216 217 215 210 207 202
124 118 120 127 126 122 121 123 125 124 117 110 108 106 110 122 127 125 125 128 132 143 148 134 122 130 245 300 299 308 359 350 338 333 330 333 338 339 337 336 339 340 338 339 341 340 338 336 335 333 330 327 325 324 323 320 318 316 316 316 316 315 314 314 314 313 311 310 310 313 315 315 313 306 277 235 220 218 214 208 206 203 197 189 181
130 124 118 116 115 116 117 117 118 118 115 108 100 93 95 104 105 103 108 110 100 97 104 99 91 86 33 348 354 28 20 353 337 337 337 332 329 328 328 331 334 334 335 339 341 341 339 338 336 334 332 332 333 332 331 327 324 320 318 318 319 319 319 319 319 319 318 317 316 316 316 315 315 310 280 230 211 202 193 188 183 178 173 167 162
114 114 108 101 98 99 98 97 98 98 96 95 91 84 81 84 83 79 81 81 73 69 71 66 60 60 48 29 32 34 18 345 335 337 335 331 328 325 323 325 327 329 333 337 340 341 340 339 338 336 334 335 337 338 338 335 331 327 326 326 324 324 326 328 327 326 327 325 320 317 315 316 318 318 291 210 190 174 162 158 157 156 153 150 149
92 94 94 92 89 87 85 83 83 81 80 80 80 77 74 72 71 67 61 58 53 45 43 46 44 38 29 22 20 15 359 341 341 340 336 335 334 328 322 322 324 327 331 334 338 342 342 341 341 340 337 337 341 343 343 342 339 336 338 340 340 338 338 338 335 334 336 336 330 326 325 326 327 333 13 146 149 145 141 140 141 144 143 140 138
79 78 81 85 85 84 81 78 76 74 72 69 67 68 65 62 62 62 58 50 40 29 27 32 30 22 14 5 356 351 345 341 344 341 336 337 335 330 326 323 323 326 330 333 338 343 343 342 343 344 340 339 343 346 348 349 350 349 350 353 354 352 348 344 342 344 347 347 342 342 348 356 357 8 74 107 113 119 123 125 128 133 135 132 130
73 73 74 77 79 79 78 76 74 72 70 68 66 66 63 59 58 59 56 47 35 26 28 32 26 15 1 346 340 340 339 343 347 344 338 339 340 336 330 325 322 327 331 332 337 344 344 343 345 347 344 341 344 349 355 359 1 1 1 2 1 358 354 352 351 354 357 0 0 4 20 43 52 61 85 96 100 107 114 117 120 123 125 125 125
67 68 68 70 71 73 74 74 74 73 72 71 70 68 64 61 58 55 51 46 37 31 34 34 27 12 354 342 340 340 342 347 350 345 342 343 343 340 336 329 325 328 331 333 338 344 346 346 348 349 349 347 348 354 1 5 5 5 6 6 4 2 1 3 5 6 11 19 24 28 41 63 76 82 86 91 98 107 112 116 119 121 120 119 120
63 66 68 69 71 72 74 75 76 76 74 74 72 69 64 60 56 50 45 39 33 32 35 33 25 10 356 346 342 342 345 347 348 346 344 344 345 345 342 335 330 330 331 336 341 345 348 351 352 352 353 354 355 359 4 6 5 5 6 7 8 9 11 14 18 23 29 37 42 43 51 68 81 86 88 92 100 106 109 110 114 119 119 116 116
64 65 67 68 70 72 73 75 76 77 75 73 72 69 64 59 55 47 40 34 30 29 29 27 21 11 360 351 345 343 343 344 344 345 345 345 347 349 347 341 338 336 334 338 344 346 350 354 356 356 358 1 2 4 7 8 6 7 10 12 15 17 20 24 29 35 42 50 55 55 61 70 78 82 87 91 97 101 104 104 106 111 114 113 112